Total_Precipitation_Accumulation
1.25 1.42 1.38 1.09 0.98 0.85 0.73 0.71 0.56 0.41 0.39 0.44 0.45 0.43 0.37 0.33 0.35 0.33 0.29 0.35 0.43 0.45 0.48 0.59 0.68 0.82 0.92 1.01 1.12 1.31 1.50 1.62 1.67 1.72 1.70 1.65 1.80 1.91 1.80 1.69 1.81 1.98 2.09 2.18
1.35 1.10 0.70 0.59 0.63 0.74 0.78 0.78 0.59 0.42 0.42 0.52 0.50 0.47 0.38 0.32 0.34 0.31 0.29 0.32 0.41 0.46 0.51 0.57 0.66 0.79 0.88 1.00 1.07 1.24 1.48 1.58 1.56 1.54 1.61 1.62 1.65 1.73 1.81 1.77 1.77 1.88 2.07 2.24
1.08 0.68 0.48 0.62 0.71 0.84 0.80 0.69 0.55 0.53 0.55 0.62 0.67 0.64 0.40 0.32 0.32 0.32 0.34 0.36 0.44 0.47 0.51 0.56 0.63 0.73 0.86 1.00 1.06 1.10 1.33 1.61 1.63 1.62 1.72 1.77 1.87 1.89 1.88 1.79 1.76 1.84 1.93 2.04
0.84 0.50 0.53 0.73 0.75 0.78 0.78 0.44 0.47 0.58 0.78 0.83 0.74 0.92 0.50 0.34 0.33 0.32 0.37 0.43 0.46 0.49 0.51 0.58 0.63 0.74 0.83 0.98 1.17 1.18 1.25 1.50 1.71 1.71 1.69 1.68 1.75 1.76 1.75 1.68 1.60 1.71 1.91 2.01
0.92 0.54 0.58 0.74 0.60 0.59 0.61 0.41 0.50 0.67 0.89 0.92 0.72 0.91 0.58 0.35 0.37 0.32 0.31 0.37 0.42 0.46 0.54 0.61 0.67 0.78 0.90 1.04 1.23 1.33 1.36 1.39 1.59 1.67 1.61 1.59 1.60 1.63 1.73 1.74 1.66 1.61 1.76 1.97
0.71 0.54 0.59 0.55 0.44 0.49 0.57 0.65 0.81 0.95 1.29 1.34 0.58 0.61 0.61 0.49 0.50 0.39 0.33 0.37 0.40 0.48 0.59 0.63 0.71 0.84 0.99 1.12 1.28 1.40 1.47 1.38 1.44 1.67 1.65 1.53 1.49 1.50 1.60 1.70 1.78 1.75 1.70 1.77
0.95 0.73 0.65 0.55 0.67 0.78 0.91 1.32 1.99 2.09 1.92 1.08 0.33 0.39 0.57 0.47 0.46 0.42 0.40 0.43 0.42 0.47 0.58 0.65 0.73 0.87 0.96 1.07 1.21 1.35 1.39 1.40 1.40 1.55 1.66 1.56 1.45 1.45 1.43 1.50 1.61 1.69 1.70 1.66
1.16 1.01 0.72 0.62 0.77 0.98 0.95 1.16 1.57 1.52 0.96 0.46 0.27 0.41 0.48 0.40 0.34 0.34 0.35 0.40 0.41 0.41 0.49 0.59 0.68 0.80 0.91 0.94 1.05 1.21 1.30 1.31 1.34 1.48 1.65 1.67 1.54 1.51 1.41 1.40 1.48 1.56 1.58 1.54
1.12 0.80 0.50 0.46 0.47 0.63 0.87 0.89 0.81 1.14 0.76 0.50 0.40 0.37 0.37 0.27 0.24 0.27 0.30 0.34 0.39 0.41 0.46 0.53 0.63 0.68 0.74 0.85 0.94 1.05 1.23 1.32 1.33 1.36 1.55 1.76 1.76 1.61 1.49 1.38 1.41 1.47 1.49 1.50
1.21 0.97 0.48 0.47 0.63 0.70 0.76 0.84 1.04 1.45 1.20 0.70 0.41 0.37 0.50 0.39 0.34 0.31 0.31 0.33 0.34 0.39 0.49 0.53 0.58 0.61 0.66 0.77 0.85 0.94 1.12 1.26 1.31 1.32 1.38 1.58 1.82 1.76 1.66 1.61 1.45 1.42 1.43 1.46
1.06 1.21 0.77 0.64 0.86 0.85 0.81 1.02 1.23 1.33 1.05 0.88 0.57 0.49 0.54 0.46 0.39 0.35 0.33 0.31 0.33 0.36 0.44 0.49 0.52 0.59 0.65 0.72 0.83 0.93 1.04 1.14 1.21 1.22 1.26 1.36 1.59 1.77 1.79 1.73 1.59 1.42 1.40 1.37
1.03 1.34 0.99 0.59 0.52 0.54 0.72 0.87 1.08 1.42 1.06 0.71 0.67 0.57 0.38 0.31 0.32 0.31 0.30 0.30 0.31 0.35 0.38 0.44 0.48 0.57 0.62 0.69 0.80 0.87 0.95 1.09 1.17 1.19 1.22 1.29 1.37 1.53 1.74 1.69 1.55 1.39 1.35 1.36
1.61 1.95 1.53 1.04 0.84 0.73 0.85 0.80 0.85 1.04 1.14 0.82 0.73 0.55 0.31 0.22 0.24 0.26 0.28 0.29 0.31 0.35 0.37 0.42 0.50 0.52 0.58 0.68 0.74 0.79 0.86 0.99 1.10 1.18 1.21 1.20 1.26 1.34 1.44 1.57 1.52 1.40 1.32 1.30
1.92 2.06 1.43 1.14 0.93 0.88 0.83 0.63 0.64 1.03 1.34 0.80 0.49 0.41 0.30 0.27 0.29 0.28 0.29 0.29 0.31 0.34 0.37 0.40 0.47 0.51 0.55 0.63 0.73 0.75 0.84 0.94 0.99 1.09 1.13 1.13 1.12 1.17 1.21 1.31 1.48 1.48 1.38 1.29
1.65 1.66 0.79 0.47 0.38 0.46 0.52 0.46 0.47 0.72 0.76 0.67 0.41 0.35 0.38 0.36 0.35 0.35 0.35 0.35 0.32 0.32 0.35 0.40 0.46 0.51 0.56 0.64 0.73 0.78 0.82 0.84 0.87 0.98 1.03 1.08 1.11 1.17 1.21 1.18 1.29 1.46 1.41 1.26
1.44 1.42 0.72 0.42 0.29 0.35 0.41 0.33 0.36 0.42 0.44 0.42 0.31 0.33 0.34 0.33 0.28 0.30 0.33 0.36 0.38 0.38 0.39 0.41 0.46 0.50 0.57 0.65 0.75 0.87 0.87 0.86 0.81 0.87 0.96 1.03 1.12 1.25 1.26 1.21 1.25 1.36 1.43 1.35
1.37 1.40 1.20 0.66 0.33 0.55 0.61 0.42 0.41 0.44 0.43 0.46 0.51 0.43 0.34 0.33 0.33 0.38 0.42 0.44 0.45 0.45 0.45 0.44 0.48 0.53 0.61 0.67 0.76 0.87 0.90 0.89 0.85 0.85 0.91 0.97 1.03 1.20 1.26 1.25 1.30 1.35 1.41 1.47
1.10 1.33 1.67 1.10 0.78 1.06 0.54 0.29 0.33 0.38 0.44 0.48 0.46 0.38 0.37 0.40 0.37 0.37 0.43 0.51 0.51 0.48 0.47 0.47 0.51 0.56 0.59 0.66 0.71 0.78 0.84 0.85 0.90 0.90 0.93 0.98 0.98 1.04 1.19 1.30 1.33 1.35 1.37 1.40
0.68 1.29 1.98 1.64 1.17 0.64 0.30 0.24 0.33 0.44 0.49 0.42 0.38 0.35 0.33 0.30 0.27 0.29 0.31 0.39 0.49 0.50 0.50 0.52 0.56 0.59 0.60 0.61 0.65 0.75 0.81 0.83 0.92 0.98 0.99 0.97 0.93 0.96 1.08 1.19 1.30 1.35 1.36 1.32
0.69 1.27 2.16 1.88 1.43 0.68 0.39 0.24 0.22 0.36 0.61 0.38 0.34 0.37 0.34 0.33 0.43 0.35 0.29 0.36 0.46 0.45 0.48 0.53 0.55 0.53 0.57 0.60 0.63 0.73 0.81 0.80 0.89 0.96 1.01 0.93 0.84 0.83 0.86 0.98 1.18 1.30 1.32 1.26
1.08 1.72 2.06 1.58 1.29 0.57 0.36 0.25 0.27 0.59 0.68 0.36 0.35 0.38 0.38 0.44 0.50 0.39 0.34 0.39 0.44 0.42 0.45 0.47 0.49 0.50 0.59 0.64 0.63 0.70 0.78 0.84 0.89 0.95 1.02 0.93 0.83 0.82 0.83 0.91 1.09 1.23 1.31 1.31
0.86 1.20 1.22 1.16 1.34 0.73 0.36 0.37 0.60 0.70 0.40 0.32 0.30 0.31 0.33 0.31 0.29 0.28 0.31 0.37 0.40 0.37 0.37 0.39 0.43 0.48 0.55 0.62 0.65 0.71 0.78 0.84 0.92 0.97 0.96 0.95 0.92 0.87 0.89 0.93 1.06 1.21 1.29 1.37
0.66 0.86 0.90 0.86 0.75 0.50 0.40 0.50 0.52 0.45 0.36 0.28 0.30 0.27 0.27 0.26 0.26 0.29 0.33 0.35 0.38 0.36 0.36 0.37 0.41 0.45 0.52 0.59 0.65 0.76 0.82 0.82 0.88 0.94 0.96 0.97 0.97 0.94 0.95 0.99 1.08 1.20 1.28 1.33
0.43 0.47 0.64 0.61 0.40 0.32 0.34 0.37 0.37 0.33 0.30 0.26 0.27 0.25 0.24 0.23 0.23 0.27 0.31 0.32 0.34 0.35 0.36 0.37 0.40 0.43 0.51 0.58 0.62 0.72 0.80 0.79 0.78 0.83 0.93 0.93 0.96 1.01 1.04 1.07 1.10 1.18 1.28 1.35
0.37 0.45 0.58 0.54 0.33 0.29 0.28 0.29 0.30 0.25 0.23 0.22 0.23 0.23 0.23 0.24 0.24 0.27 0.30 0.31 0.34 0.39 0.40 0.40 0.43 0.45 0.52 0.60 0.66 0.73 0.75 0.74 0.74 0.77 0.88 0.96 1.00 1.06 1.09 1.11 1.15 1.22 1.23 1.37
0.28 0.40 0.57 0.52 0.34 0.38 0.33 0.27 0.26 0.25 0.24 0.25 0.25 0.25 0.22 0.24 0.29 0.28 0.30 0.32 0.35 0.40 0.43 0.43 0.44 0.49 0.54 0.61 0.72 0.76 0.72 0.71 0.74 0.78 0.84 0.94 1.02 1.04 1.03 1.02 1.09 1.26 1.28 1.32